Weather History for HEMM - July, 2013

Change the Weather History Date:

Wednesday, July 10, 2013

  Actual Average Record
Temperature  
Mean Temperature 76 °F -  
Max Temperature 82 °F 83 °F 91 °F (2006)
Min Temperature 69 °F 70 °F 68 °F (2005)
Cooling Degree Days 10    
Growing Degree Days 26 (Base 50)    
Moisture  
Dew Point 71 °F    
Average Humidity 82    
Maximum Humidity 100    
Minimum Humidity 62    
Precipitation  
Precipitation 0.00 in 0.00 in - ()
Sea Level Pressure  
Sea Level Pressure 29.80 in    
Wind  
Wind Speed 12 mph ()    
Max Wind Speed 21 mph    
Max Gust Speed -    
Visibility 5.6 miles    
Events      
Averages and records for this station are not official NWS values.
T = Trace of Precipitation, MM = Missing Value Source: Averaged Metar Reports

Daily Weather History Graph

Daily Weather History Graph

Search for Another Location

Airport or City:

Trip Planner

Search our weather history database for the weather conditions in past years. The results will help you decide how hot, cold, wet, or windy it might be!

Date:

Astronomy

Jul. 10, 2013 Rise Set
Actual Time 5:14 AM EET 7:18 PM EET
Civil Twilight 4:46 AM EET 7:45 PM EET
Nautical Twilight 4:13 AM EET 8:19 PM EET
Astronomical Twilight 3:37 AM EET 8:55 PM EET
Moon 7:06 AM EET (7/10) 8:30 PM EET (7/10)
Length of Visible Light 14h 58m
Length of Day
14h 03m
Waxing Crescent, 4% of the Moon is Illuminated
Jul 10
Waxing Crescent
Jul 16
First Quarter
Jul 22
Full
Jul 29
Last Quarter
Aug 6
New

Hourly Weather History & Observations

Time (EET) Temp. Heat Index Dew Point Humidity Pressure Visibility Wind Dir Wind Speed Gust Speed Precip Events Conditions
12:00 AM 75.2 °F - 71.6 °F 89% 29.86 in 6.2 mi WNW 11.5 mph - N/A   Scattered Clouds
1:00 AM 73.4 °F - 69.8 °F 88% 29.86 in 6.2 mi WNW 11.5 mph - N/A   Scattered Clouds
2:00 AM 73 °F - 70 °F 89% 29.85 in 6 mi WNW 11.5 mph - -   Partly Cloudy
2:00 AM 73.4 °F - 69.8 °F 88% 29.83 in 6.2 mi WNW 11.5 mph - N/A   Scattered Clouds
3:00 AM 73.4 °F - 69.8 °F 88% 29.83 in 6.2 mi WNW 11.5 mph - N/A   Scattered Clouds
4:00 AM 71.6 °F - 69.8 °F 94% 29.83 in 3.7 mi West 9.2 mph - N/A   Scattered Clouds
5:00 AM 71.6 °F - 69.8 °F 94% 29.83 in 3.7 mi West 9.2 mph - N/A   Scattered Clouds
6:00 AM 69.8 °F - 69.8 °F 100% 29.80 in 3.7 mi West 9.2 mph - N/A   Scattered Clouds
7:00 AM 73.4 °F - 71.6 °F 94% 29.80 in 3.7 mi WNW 9.2 mph - N/A   Partly Cloudy
8:00 AM 77 °F - 72 °F 80% 29.81 in 5 mi WNW 11.5 mph - -   Mist
8:00 AM 77.0 °F - 71.6 °F 83% 29.80 in 5.0 mi WNW 11.5 mph - N/A   Partly Cloudy
9:00 AM 78.8 °F - 73.4 °F 83% 29.80 in 5.0 mi WNW 16.1 mph - N/A   Scattered Clouds
10:00 AM 80.6 °F 84.6 °F 71.6 °F 74% 29.80 in 5.0 mi NW 17.3 mph - N/A   Scattered Clouds
11:00 AM 80.6 °F 85.4 °F 73.4 °F 79% 29.80 in 5.0 mi NW 18.4 mph - N/A   Partly Cloudy
12:00 PM 80.6 °F 85.4 °F 73.4 °F 79% 29.80 in 5.0 mi NW 18.4 mph - N/A   Partly Cloudy
1:00 PM 82.4 °F 88.2 °F 73.4 °F 74% 29.80 in 6.2 mi NW 19.6 mph - N/A   Partly Cloudy
2:00 PM 82 °F - 71 °F 62% 29.80 in 6 mi NW 19.6 mph - -   Scattered Clouds
2:00 PM 82.4 °F 87.2 °F 71.6 °F 70% 29.80 in 6.2 mi NW 19.6 mph - N/A   Partly Cloudy
3:00 PM 80.6 °F 84.6 °F 71.6 °F 74% 29.77 in - NNW 19.6 mph - N/A   Clear
4:00 PM 80.6 °F 84.6 °F 71.6 °F 74% 29.74 in 6.2 mi NW 20.7 mph - N/A   Partly Cloudy
5:00 PM 80.6 °F 84.6 °F 71.6 °F 74% 29.77 in 6.2 mi NNW 20.7 mph - N/A   Scattered Clouds
6:00 PM 78.8 °F - 71.6 °F 78% 29.77 in 6.2 mi NNW 18.4 mph - N/A   Scattered Clouds
8:00 PM 77 °F - 69 °F 70% 29.79 in 6 mi NNW 17.3 mph - -   Partly Cloudy
8:00 PM 77.0 °F - 68.0 °F 74% 29.77 in 6.2 mi NW 17.3 mph - N/A   Scattered Clouds
9:00 PM 77.0 °F - 71.6 °F 83% 29.77 in 6.2 mi NW 17.3 mph - N/A   Scattered Clouds
10:00 PM 76 °F - 71 °F 79% 29.81 in 6 mi WNW 11.5 mph - -  
10:00 PM 75.2 °F - 71.6 °F 89% 29.80 in 6.2 mi NW 17.3 mph - N/A   Scattered Clouds
11:00 PM 76 °F - 71 °F 79% 29.81 in 6 mi WNW 11.5 mph - -  
11:00 PM 75.2 °F - 71.6 °F 89% 29.80 in 6.2 mi WNW 11.5 mph - N/A   Scattered Clouds